XNO8201 EICK-EGKK

Flight info

Callsign XNO8201
Flight time 0h 58m
Altitude 33000
Route ELTIG1S ELTIG DCT NORLA DCT FONZU DCT ELRIP DCT OTMET
Aircraft A319/M-SDE3FGHIRWY/LB1

Departure

Time 2026-05-07 09:09
Airport Cork International Airport (EICK)

Arrival

Time 2026-05-07 10:07
Airport London Gatwick Airport (EGKK)
Time Latitude Longitude Altitude Speed Heading
2026-05-07 08:16 51.84892 -8.49072 505 ft 0 kts 70°
2026-05-07 09:00 51.84887 -8.49096 504 ft 4 kts 69°
2026-05-07 09:01 51.84877 -8.49137 504 ft 4 kts 66°
2026-05-07 09:01 51.84865 -8.49176 504 ft 4 kts 60°
2026-05-07 09:01 51.84850 -8.49211 504 ft 4 kts 37°
2026-05-07 09:01 51.84833 -8.49222 504 ft 1 kts 344°
2026-05-07 09:04 51.84835 -8.49223 504 ft 1 kts 344°
2026-05-07 09:05 51.84852 -8.49231 504 ft 4 kts 344°
2026-05-07 09:05 51.84883 -8.49249 504 ft 6 kts 339°
2026-05-07 09:05 51.84933 -8.49273 504 ft 9 kts 346°
2026-05-07 09:05 51.84979 -8.49293 504 ft 11 kts 342°
2026-05-07 09:06 51.85059 -8.49342 504 ft 13 kts 339°
2026-05-07 09:06 51.85124 -8.49381 504 ft 8 kts 331°
2026-05-07 09:06 51.85141 -8.49454 504 ft 7 kts 256°
2026-05-07 09:06 51.85108 -8.49502 504 ft 5 kts 210°
2026-05-07 09:07 51.85076 -8.49528 504 ft 6 kts 206°
2026-05-07 09:07 51.85030 -8.49563 504 ft 8 kts 205°
2026-05-07 09:07 51.84978 -8.49599 504 ft 8 kts 194°
2026-05-07 09:07 51.84939 -8.49591 504 ft 0 kts 160°
2026-05-07 09:08 51.84803 -8.49510 504 ft 58 kts 160°
2026-05-07 09:08 51.84201 -8.49155 505 ft 124 kts 160°
2026-05-07 09:08 51.83242 -8.48582 691 ft 154 kts 161°
2026-05-07 09:09 51.82256 -8.48043 1472 ft 148 kts 165°
2026-05-07 09:09 51.81277 -8.47553 2122 ft 147 kts 166°
2026-05-07 09:09 51.80275 -8.47064 2592 ft 159 kts 165°
2026-05-07 09:09 51.79293 -8.46048 2944 ft 183 kts 128°
2026-05-07 09:10 51.78929 -8.43989 3297 ft 204 kts 92°
2026-05-07 09:10 51.78871 -8.41566 3524 ft 231 kts 93°
2026-05-07 09:10 51.78760 -8.38835 3908 ft 257 kts 94°
2026-05-07 09:10 51.78603 -8.35858 4590 ft 271 kts 95°
2026-05-07 09:11 51.78418 -8.32800 5486 ft 276 kts 96°
2026-05-07 09:11 51.78229 -8.29703 6459 ft 278 kts 97°
2026-05-07 09:11 51.78038 -8.26577 7356 ft 281 kts 97°
2026-05-07 09:11 51.77847 -8.23429 8277 ft 283 kts 97°
2026-05-07 09:12 51.77653 -8.20245 9146 ft 287 kts 97°
2026-05-07 09:12 51.77457 -8.17006 9973 ft 293 kts 96°
2026-05-07 09:12 51.77254 -8.13639 10383 ft 313 kts 96°
2026-05-07 09:12 51.77030 -8.10007 10624 ft 337 kts 97°
2026-05-07 09:13 51.76787 -8.06132 10939 ft 355 kts 96°
2026-05-07 09:13 51.76536 -8.02124 11575 ft 362 kts 96°
2026-05-07 09:13 51.76282 -7.98049 12262 ft 367 kts 96°
2026-05-07 09:13 51.76021 -7.93917 12970 ft 372 kts 96°
2026-05-07 09:14 51.75757 -7.89745 13692 ft 376 kts 96°
2026-05-07 09:14 51.75488 -7.85528 14327 ft 380 kts 97°
2026-05-07 09:14 51.75072 -7.81301 14952 ft 383 kts 103°
2026-05-07 09:14 51.74504 -7.77088 15594 ft 386 kts 103°
2026-05-07 09:15 51.73929 -7.72845 16254 ft 389 kts 104°
2026-05-07 09:15 51.73348 -7.68566 16889 ft 392 kts 104°
2026-05-07 09:15 51.72762 -7.64253 17516 ft 395 kts 104°
2026-05-07 09:15 51.72168 -7.59918 18137 ft 399 kts 104°
2026-05-07 09:16 51.71564 -7.55531 18695 ft 402 kts 104°
2026-05-07 09:16 51.70953 -7.51111 19246 ft 405 kts 104°
2026-05-07 09:16 51.70339 -7.46670 19795 ft 408 kts 104°
2026-05-07 09:16 51.69718 -7.42184 20336 ft 411 kts 104°
2026-05-07 09:17 51.69093 -7.37679 20853 ft 414 kts 104°
2026-05-07 09:17 51.68461 -7.33150 21371 ft 416 kts 104°
2026-05-07 09:17 51.67820 -7.28579 21872 ft 419 kts 104°
2026-05-07 09:17 51.67174 -7.23994 22360 ft 422 kts 104°
2026-05-07 09:18 51.66519 -7.19357 22837 ft 425 kts 104°
2026-05-07 09:18 51.65862 -7.14701 23311 ft 428 kts 104°
2026-05-07 09:18 51.65200 -7.10020 23740 ft 431 kts 104°
2026-05-07 09:18 51.64528 -7.05304 24132 ft 433 kts 104°
2026-05-07 09:19 51.63854 -7.00572 24533 ft 435 kts 104°
2026-05-07 09:19 51.63176 -6.95825 24938 ft 436 kts 104°
2026-05-07 09:19 51.62496 -6.91059 25335 ft 438 kts 104°
2026-05-07 09:19 51.61721 -6.86314 25725 ft 439 kts 110°
2026-05-07 09:20 51.60614 -6.81743 26114 ft 439 kts 114°
2026-05-07 09:20 51.59461 -6.77170 26467 ft 442 kts 114°
2026-05-07 09:20 51.58298 -6.72581 26822 ft 444 kts 114°
2026-05-07 09:20 51.57127 -6.67974 27187 ft 446 kts 114°
2026-05-07 09:21 51.55951 -6.63353 27542 ft 448 kts 114°
2026-05-07 09:21 51.54769 -6.58711 27895 ft 450 kts 114°
2026-05-07 09:21 51.53584 -6.54055 28245 ft 451 kts 114°
2026-05-07 09:21 51.52394 -6.49383 28588 ft 453 kts 114°
2026-05-07 09:22 51.51197 -6.44696 28920 ft 455 kts 114°
2026-05-07 09:22 51.49995 -6.39989 29263 ft 456 kts 114°
2026-05-07 09:22 51.48789 -6.35281 29643 ft 456 kts 114°
2026-05-07 09:22 51.47582 -6.30588 30130 ft 454 kts 114°
2026-05-07 09:23 51.46377 -6.25921 30530 ft 452 kts 114°
2026-05-07 09:23 51.45173 -6.21272 30963 ft 450 kts 114°
2026-05-07 09:23 51.43977 -6.16659 31429 ft 447 kts 113°
2026-05-07 09:23 51.42788 -6.12073 31853 ft 445 kts 113°
2026-05-07 09:24 51.41603 -6.07505 32238 ft 444 kts 113°
2026-05-07 09:24 51.40417 -6.02940 32578 ft 444 kts 114°
2026-05-07 09:24 51.39226 -5.98372 32908 ft 444 kts 114°
2026-05-07 09:24 51.38033 -5.93811 33012 ft 444 kts 114°
2026-05-07 09:25 51.35645 -5.84706 33024 ft 443 kts 114°
2026-05-07 09:25 51.33262 -5.75625 33020 ft 442 kts 114°
2026-05-07 09:26 51.30864 -5.66548 33027 ft 444 kts 114°
2026-05-07 09:26 51.28455 -5.57482 33027 ft 443 kts 114°
2026-05-07 09:27 51.26039 -5.48423 33021 ft 443 kts 114°
2026-05-07 09:28 51.22403 -5.34860 33018 ft 443 kts 114°
2026-05-07 09:28 51.19971 -5.25818 33009 ft 444 kts 114°
2026-05-07 09:29 51.17518 -5.16748 33004 ft 446 kts 114°
2026-05-07 09:29 51.15057 -5.07660 33007 ft 448 kts 115°
2026-05-07 09:30 51.12586 -4.98556 33007 ft 448 kts 114°
2026-05-07 09:30 51.10096 -4.89454 33012 ft 449 kts 115°
2026-05-07 09:31 51.07592 -4.80353 33017 ft 449 kts 115°
2026-05-07 09:31 51.05091 -4.71258 33018 ft 449 kts 115°
2026-05-07 09:32 51.02585 -4.62165 33017 ft 449 kts 114°
2026-05-07 09:32 51.00067 -4.53080 33026 ft 450 kts 115°
2026-05-07 09:33 50.97537 -4.44001 33027 ft 450 kts 115°
2026-05-07 09:33 50.95001 -4.34937 33034 ft 447 kts 115°
2026-05-07 09:34 50.92465 -4.25909 33039 ft 450 kts 115°
2026-05-07 09:34 50.89907 -4.16870 33042 ft 450 kts 115°
2026-05-07 09:35 50.87346 -4.07827 33044 ft 449 kts 115°
2026-05-07 09:35 50.84790 -3.98811 33043 ft 450 kts 115°
2026-05-07 09:36 50.82252 -3.89764 33043 ft 450 kts 111°
2026-05-07 09:36 50.80276 -3.80375 33022 ft 451 kts 109°
2026-05-07 09:37 50.78299 -3.70940 33013 ft 454 kts 109°
2026-05-07 09:37 50.76296 -3.61474 33025 ft 455 kts 109°
2026-05-07 09:38 50.74284 -3.51969 33032 ft 456 kts 109°
2026-05-07 09:38 50.72306 -3.42637 33057 ft 436 kts 109°
2026-05-07 09:39 50.70396 -3.33671 33057 ft 428 kts 110°
2026-05-07 09:39 50.68488 -3.24786 33058 ft 428 kts 110°
2026-05-07 09:40 50.66577 -3.15911 32900 ft 425 kts 110°
2026-05-07 09:40 50.65631 -3.11538 32628 ft 419 kts 110°
2026-05-07 09:40 50.64692 -3.07202 32361 ft 417 kts 110°
2026-05-07 09:40 50.63842 -3.02847 32096 ft 416 kts 103°
2026-05-07 09:41 50.63437 -2.98367 31756 ft 411 kts 93°
2026-05-07 09:41 50.63519 -2.93881 31295 ft 409 kts 83°
2026-05-07 09:41 50.63990 -2.89479 30839 ft 406 kts 80°
2026-05-07 09:41 50.64481 -2.85177 30396 ft 404 kts 80°
2026-05-07 09:42 50.64977 -2.80767 29924 ft 402 kts 80°
2026-05-07 09:42 50.65458 -2.76448 29483 ft 398 kts 80°
2026-05-07 09:42 50.65925 -2.72224 29063 ft 395 kts 80°
2026-05-07 09:42 50.66402 -2.67923 28646 ft 391 kts 80°
2026-05-07 09:43 50.66859 -2.63772 28248 ft 388 kts 81°
2026-05-07 09:43 50.67316 -2.59598 27839 ft 385 kts 81°
2026-05-07 09:43 50.67772 -2.55396 27426 ft 382 kts 81°
2026-05-07 09:43 50.68095 -2.51257 27094 ft 380 kts 89°
2026-05-07 09:44 50.68004 -2.47080 27057 ft 383 kts 95°
2026-05-07 09:44 50.67821 -2.42881 27066 ft 385 kts 95°
2026-05-07 09:44 50.67647 -2.38670 27067 ft 385 kts 94°
2026-05-07 09:44 50.67477 -2.34451 27052 ft 386 kts 94°
2026-05-07 09:45 50.67304 -2.30193 26324 ft 394 kts 94°
2026-05-07 09:45 50.67125 -2.25913 26002 ft 388 kts 95°
2026-05-07 09:45 50.66944 -2.21704 25698 ft 382 kts 95°
2026-05-07 09:45 50.66764 -2.17609 25401 ft 377 kts 95°
2026-05-07 09:46 50.66620 -2.13504 25108 ft 375 kts 89°
2026-05-07 09:46 50.66948 -2.09451 24742 ft 372 kts 81°
2026-05-07 09:46 50.67388 -2.05445 24321 ft 369 kts 81°
2026-05-07 09:46 50.67831 -2.01475 23903 ft 367 kts 81°
2026-05-07 09:47 50.68274 -1.97525 23462 ft 365 kts 80°
2026-05-07 09:47 50.68713 -1.93601 22988 ft 362 kts 81°
2026-05-07 09:47 50.69149 -1.89699 22536 ft 360 kts 81°
2026-05-07 09:47 50.69576 -1.85829 22115 ft 357 kts 81°
2026-05-07 09:48 50.69862 -1.83225 21841 ft 355 kts 81°
2026-05-07 09:48 50.70281 -1.79400 21434 ft 352 kts 81°
2026-05-07 09:48 50.70695 -1.75605 21109 ft 350 kts 81°
2026-05-07 09:48 50.71106 -1.71826 21079 ft 350 kts 81°
2026-05-07 09:49 50.71515 -1.68035 21080 ft 351 kts 81°
2026-05-07 09:49 50.71923 -1.64240 21080 ft 351 kts 81°
2026-05-07 09:49 50.72330 -1.60444 21085 ft 351 kts 81°
2026-05-07 09:49 50.72736 -1.56642 21034 ft 352 kts 81°
2026-05-07 09:50 50.73139 -1.52841 20764 ft 350 kts 81°
2026-05-07 09:50 50.73539 -1.49060 20506 ft 348 kts 81°
2026-05-07 09:50 50.73936 -1.45297 20257 ft 347 kts 81°
2026-05-07 09:50 50.74331 -1.41548 20017 ft 346 kts 81°
2026-05-07 09:51 50.74723 -1.37825 19748 ft 341 kts 81°
2026-05-07 09:51 50.75110 -1.34147 19370 ft 339 kts 81°
2026-05-07 09:51 50.75494 -1.30482 18981 ft 338 kts 81°
2026-05-07 09:51 50.75875 -1.26832 18576 ft 338 kts 81°
2026-05-07 09:52 50.76255 -1.23165 18146 ft 337 kts 82°
2026-05-07 09:52 50.76633 -1.19525 17740 ft 335 kts 82°
2026-05-07 09:52 50.77014 -1.15917 17482 ft 329 kts 81°
2026-05-07 09:52 50.77403 -1.12419 17326 ft 320 kts 81°
2026-05-07 09:53 50.77798 -1.08973 16982 ft 318 kts 81°
2026-05-07 09:53 50.78195 -1.05541 16613 ft 317 kts 81°
2026-05-07 09:53 50.78588 -1.02115 16250 ft 316 kts 81°
2026-05-07 09:53 50.78979 -0.98698 15848 ft 317 kts 81°
2026-05-07 09:54 50.79368 -0.95255 15447 ft 318 kts 81°
2026-05-07 09:54 50.79753 -0.91816 15079 ft 317 kts 81°
2026-05-07 09:54 50.80134 -0.88386 14747 ft 316 kts 81°
2026-05-07 09:54 50.80513 -0.84979 14435 ft 314 kts 81°
2026-05-07 09:55 50.80891 -0.81589 14106 ft 312 kts 81°
2026-05-07 09:55 50.81268 -0.78217 13774 ft 311 kts 81°
2026-05-07 09:55 50.81643 -0.74865 13433 ft 309 kts 81°
2026-05-07 09:55 50.82012 -0.71530 13079 ft 307 kts 81°
2026-05-07 09:56 50.82376 -0.68212 12729 ft 305 kts 81°
2026-05-07 09:56 50.82734 -0.64921 12397 ft 303 kts 81°
2026-05-07 09:56 50.83090 -0.61646 12040 ft 301 kts 81°
2026-05-07 09:56 50.83445 -0.58388 11695 ft 299 kts 81°
2026-05-07 09:57 50.83796 -0.55152 11358 ft 297 kts 81°
2026-05-07 09:57 50.84144 -0.51937 11014 ft 296 kts 81°
2026-05-07 09:57 50.84492 -0.48737 10680 ft 294 kts 81°
2026-05-07 09:57 50.84951 -0.45612 10372 ft 291 kts 67°
2026-05-07 09:58 50.86090 -0.43028 9914 ft 287 kts 41°
2026-05-07 09:58 50.87815 -0.41528 9297 ft 284 kts 13°
2026-05-07 09:58 50.89758 -0.41432 8692 ft 280 kts 346°
2026-05-07 09:58 50.91550 -0.42551 8169 ft 273 kts 332°
2026-05-07 09:59 50.93182 -0.43866 8028 ft 254 kts 331°
2026-05-07 09:59 50.94718 -0.45128 7676 ft 245 kts 331°
2026-05-07 09:59 50.96222 -0.46365 7252 ft 242 kts 331°
2026-05-07 09:59 50.97711 -0.47589 6818 ft 240 kts 331°
2026-05-07 10:00 50.99187 -0.48803 6377 ft 238 kts 331°
2026-05-07 10:00 51.00652 -0.49995 5914 ft 236 kts 331°
2026-05-07 10:00 51.02104 -0.51174 5481 ft 233 kts 331°
2026-05-07 10:00 51.03500 -0.52297 5347 ft 217 kts 331°
2026-05-07 10:01 51.04814 -0.53363 5156 ft 206 kts 331°
2026-05-07 10:01 51.06055 -0.54371 4877 ft 198 kts 331°
2026-05-07 10:01 51.07341 -0.55138 4405 ft 200 kts 354°
2026-05-07 10:01 51.08695 -0.54702 4013 ft 202 kts 24°
2026-05-07 10:02 51.09771 -0.53287 3676 ft 203 kts 53°
2026-05-07 10:02 51.10318 -0.51242 3360 ft 202 kts 77°
2026-05-07 10:02 51.10621 -0.49066 3074 ft 200 kts 78°
2026-05-07 10:02 51.10923 -0.46914 2998 ft 196 kts 78°
2026-05-07 10:03 51.11209 -0.44884 2997 ft 180 kts 78°
2026-05-07 10:03 51.11476 -0.42982 2973 ft 173 kts 78°
2026-05-07 10:03 51.11736 -0.41130 2818 ft 170 kts 78°
2026-05-07 10:03 51.11992 -0.39306 2598 ft 168 kts 78°
2026-05-07 10:04 51.12245 -0.37498 2388 ft 166 kts 79°
2026-05-07 10:04 51.12496 -0.35707 2165 ft 165 kts 79°
2026-05-07 10:04 51.12743 -0.33938 1943 ft 162 kts 79°
2026-05-07 10:04 51.12988 -0.32185 1725 ft 162 kts 79°
2026-05-07 10:05 51.13232 -0.30432 1489 ft 162 kts 79°
2026-05-07 10:05 51.13473 -0.28699 1262 ft 155 kts 79°
2026-05-07 10:05 51.13696 -0.27105 1046 ft 141 kts 79°
2026-05-07 10:05 51.13900 -0.25614 845 ft 135 kts 78°
2026-05-07 10:06 51.14102 -0.24185 679 ft 131 kts 78°
2026-05-07 10:06 51.14294 -0.22775 503 ft 129 kts 78°
2026-05-07 10:06 51.14490 -0.21389 328 ft 128 kts 78°
2026-05-07 10:06 51.14678 -0.20018 215 ft 125 kts 77°
2026-05-07 10:07 51.14839 -0.18857 203 ft 85 kts 77°
2026-05-07 10:07 51.14929 -0.18193 215 ft 39 kts 76°
2026-05-07 10:07 51.15018 -0.17874 206 ft 22 kts 52°
2026-05-07 10:07 51.15089 -0.17757 213 ft 8 kts 20°
2026-05-07 10:08 51.15105 -0.17755 205 ft 1 kts
2026-05-07 10:08 51.15113 -0.17755 205 ft 2 kts 358°
2026-05-07 10:08 51.15149 -0.17762 205 ft 9 kts 353°
2026-05-07 10:08 51.15177 -0.17767 205 ft 0 kts 352°
2026-05-07 10:09 51.15182 -0.17768 205 ft 3 kts 352°
2026-05-07 10:09 51.15211 -0.17776 210 ft 5 kts 350°
2026-05-07 10:09 51.15244 -0.17770 213 ft 5 kts 31°
2026-05-07 10:09 51.15260 -0.17728 210 ft 4 kts 69°
2026-05-07 10:10 51.15267 -0.17687 206 ft 5 kts 77°
2026-05-07 10:10 51.15279 -0.17600 207 ft 11 kts 78°
2026-05-07 10:10 51.15297 -0.17480 204 ft 13 kts 78°
2026-05-07 10:10 51.15321 -0.17377 207 ft 9 kts 35°
2026-05-07 10:11 51.15366 -0.17303 211 ft 11 kts 76°
2026-05-07 10:11 51.15388 -0.17183 204 ft 8 kts 66°
2026-05-07 10:11 51.15412 -0.17091 209 ft 11 kts 76°
2026-05-07 10:11 51.15429 -0.16959 204 ft 13 kts 77°
2026-05-07 10:12 51.15444 -0.16850 204 ft 4 kts 78°
2026-05-07 10:12 51.15450 -0.16832 212 ft 0 kts 51°
2026-05-07 10:12 51.15453 -0.16830 208 ft 1 kts 39°
2026-05-07 10:12 51.15462 -0.16828 207 ft 2 kts
2026-05-07 10:13 51.15482 -0.16834 204 ft 4 kts 346°
2026-05-07 10:13 51.15501 -0.16842 208 ft 2 kts 346°
2026-05-07 10:13 51.15505 -0.16843 204 ft 0 kts 346°